Location: Chuathbaluk
(61.5726°N, 159.2454°W)
Time: 07:57:48
(UTC+00:00)

XW-2F - Pass Details

Date: 19 January 2021
Orbit: 499 x 520 km, 97.5° (Epoch: 09 March)

Event Time Altitude Azimuth Distance (km) Brightness Sun altitude
Rises 16:21:16 0° 20° (NNE) 2,660 ? -20.8°
Reaches altitude 10° 16:23:32 10° 31° (NNE) 1,770 ? -20.5°
Maximum altitude 16:27:00 32° 96° (E) 917 ? -20.1°
Drops below altitude 10° 16:30:27 10° 160° (SSE) 1,762 ? -19.7°
Sets 16:32:42 0° 171° (S) 2,646 ? -19.4°
